Probability
0 0 0 0 0 0 0 0 0 0 0 0 0 6 13 10 13 19 42 68 77 84 87 90 87 87 90 94 94 97 97 90 87 87 84 74 68 74 71 81 84 81 81 81
0 0 0 0 0 0 0 0 0 0 0 0 0 6 16 13 10 16 29 58 77 81 90 90 84 84 90 90 90 90 97 90 84 84 81 77 74 74 71 68 74 77 77 74
0 0 0 0 0 0 0 0 0 0 0 0 0 6 13 16 6 16 26 45 74 77 87 94 87 87 87 87 84 87 90 87 84 81 71 68 81 61 55 61 71 74 61 61
0 0 0 0 0 0 0 0 0 0 0 0 0 0 13 16 23 19 26 39 52 74 87 90 90 87 84 87 87 90 87 87 77 74 74 68 65 52 58 61 61 68 68 61
0 0 0 0 0 0 0 0 0 0 0 0 0 0 10 16 16 23 26 32 58 74 87 90 87 81 81 81 81 87 90 84 74 74 77 77 74 58 58 58 58 65 61 58
0 0 0 0 0 0 0 0 0 0 0 0 0 0 0 16 16 29 35 48 68 77 84 84 84 84 81 74 77 81 77 77 77 77 81 77 71 65 52 58 61 61 58 58
0 0 0 0 0 0 0 0 0 0 0 0 0 0 3 6 13 23 35 42 52 65 74 84 81 77 74 74 71 84 81 81 81 81 87 81 65 68 61 55 55 55 61 58
0 0 0 0 0 0 0 0 0 0 0 0 0 0 13 10 16 23 42 48 42 52 71 81 84 77 74 74 77 81 81 81 84 87 84 81 71 61 65 61 52 58 61 52
0 0 0 0 0 0 0 0 0 0 0 0 0 6 13 13 16 26 39 42 52 61 71 77 77 74 74 74 81 77 81 81 68 71 81 77 77 61 55 45 45 45 52 55
0 0 0 0 0 0 0 0 0 0 0 0 0 3 16 16 29 26 42 52 58 68 61 68 71 65 65 68 68 68 71 71 68 68 61 58 65 58 52 48 42 45 45 45
0 0 0 0 0 0 0 0 0 0 0 0 0 0 6 16 32 32 42 55 68 68 61 68 68 65 68 65 61 68 71 71 68 65 65 65 58 55 52 48 45 45 52 42
0 0 0 0 0 0 0 0 0 0 3 0 0 0 3 6 16 39 48 68 84 77 71 65 68 71 74 61 58 68 61 58 65 55 68 65 55 48 45 48 48 48 45 45
0 0 0 0 0 0 0 0 0 0 0 0 0 3 6 13 26 48 68 74 77 84 74 68 74 74 68 61 61 58 52 52 52 48 58 52 52 48 45 48 52 52 52 42
0 0 0 0 0 0 0 0 0 0 0 0 0 3 13 16 39 58 68 71 74 77 84 81 81 81 77 68 58 61 52 48 39 42 48 52 48 48 45 45 52 55 52 42
0 0 0 0 0 0 0 0 0 0 0 0 0 3 13 29 48 68 71 81 87 87 84 84 84 84 77 74 61 58 55 52 45 42 52 48 48 45 45 42 35 32 35 26
0 0 0 0 0 0 0 0 0 0 0 0 3 10 16 39 45 74 81 90 81 84 84 77 74 81 74 71 61 58 58 52 52 48 48 48 45 42 39 39 39 39 35 29
0 0 0 0 0 0 0 0 0 0 0 0 3 13 29 32 45 65 74 74 74 77 84 81 77 77 77 74 71 65 61 55 55 55 55 42 45 45 45 32 32 29 32 32
3 13 0 0 0 0 0 3 3 3 3 6 19 23 35 42 61 68 81 77 74 77 77 74 74 74 74 71 65 61 58 58 58 55 52 52 45 39 32 35 32 39 29 29
0 32 0 0 0 0 0 3 3 3 3 19 19 23 32 39 58 68 74 68 68 68 68 65 65 58 61 65 65 61 58 52 42 42 45 42 39 42 35 39 35 35 32 26
0 26 3 0 0 0 0 0 3 3 10 16 23 29 39 52 55 65 61 61 55 68 68 68 48 58 61 65 61 52 52 42 39 35 42 35 42 39 39 32 29 29 26 19
0 6 3 0 0 0 0 0 3 3 16 13 23 32 45 55 65 55 48 48 55 52 55 52 55 58 61 58 55 45 42 35 35 29 29 29 29 29 29 29 26 23 19 16
0 0 0 0 0 0 3 3 6 23 39 29 45 42 55 48 45 39 42 45 39 45 35 35 52 48 48 35 42 35 29 26 29 29 26 26 23 16 6 16 16 16 16 10
0 0 3 0 0 26 29 26 29 19 26 35 42 39 35 35 35 29 39 29 32 35 35 35 35 39 42 35 35 32 32 26 26 23 26 23 13 13 13 10 10 13 13 6
0 3 13 23 3 6 10 13 19 23 26 29 26 32 29 29 19 23 29 29 26 35 35 32 29 29 29 35 29 32 29 26 19 16 23 13 10 6 10 10 10 10 10 10
0 3 10 13 6 6 6 10 13 13 13 16 13 16 23 23 19 19 26 26 26 26 26 23 29 29 29 26 23 23 26 13 10 10 3 6 3 3 3 3 0 0 0 3
3 3 3 10 13 19 10 6 3 6 10 10 13 16 16 10 13 13 16 19 19 19 16 26 23 19 16 19 19 16 16 10 10 6 3 3 3 3 3 0 0 0 0 0
Height
5883 5886 5887 5888 5889 5890 5891 5893 5895 5896 5895 5893 5891 5890 5889 5887 5885 5883 5880 5878 5876 5875 5874 5872 5871 5869 5868 5867 5866 5865 5865 5864 5863 5862 5862 5863 5864 5866 5868 5870 5871 5873 5876 5878
5880 5882 5884 5884 5886 5888 5889 5890 5891 5892 5892 5890 5889 5887 5887 5886 5883 5881 5878 5876 5874 5873 5872 5870 5868 5867 5866 5865 5864 5864 5863 5862 5861 5861 5861 5862 5862 5864 5866 5867 5869 5871 5874 5876
5876 5879 5879 5881 5883 5884 5885 5887 5888 5888 5888 5887 5886 5885 5885 5883 5880 5878 5876 5874 5872 5870 5869 5868 5866 5864 5864 5863 5863 5862 5861 5861 5860 5859 5859 5860 5861 5862 5864 5865 5867 5870 5872 5874
5871 5874 5875 5877 5879 5880 5881 5883 5884 5884 5884 5884 5885 5884 5883 5880 5878 5875 5874 5872 5870 5868 5867 5865 5864 5863 5862 5861 5861 5860 5859 5859 5858 5858 5858 5858 5859 5860 5862 5863 5865 5868 5870 5872
5866 5869 5871 5872 5875 5876 5877 5879 5880 5880 5880 5880 5880 5881 5881 5877 5875 5873 5872 5869 5868 5865 5864 5863 5862 5861 5860 5860 5858 5857 5857 5856 5856 5856 5856 5857 5858 5859 5860 5862 5863 5865 5867 5870
5862 5864 5866 5868 5870 5871 5873 5875 5875 5875 5876 5877 5877 5878 5878 5875 5873 5871 5869 5867 5865 5863 5862 5861 5860 5860 5859 5857 5856 5855 5855 5854 5854 5854 5855 5855 5856 5857 5858 5860 5861 5863 5865 5868
5857 5859 5861 5863 5865 5867 5869 5871 5872 5872 5873 5874 5874 5875 5875 5872 5871 5869 5867 5865 5864 5862 5861 5859 5859 5858 5857 5856 5855 5853 5853 5852 5852 5852 5853 5853 5854 5855 5856 5858 5859 5861 5863 5865
5851 5854 5857 5858 5860 5863 5864 5867 5869 5871 5873 5871 5871 5871 5871 5868 5867 5866 5865 5863 5861 5860 5859 5858 5857 5856 5855 5854 5853 5852 5851 5850 5850 5850 5850 5851 5852 5853 5854 5855 5857 5858 5860 5862
5848 5851 5852 5853 5855 5857 5859 5861 5865 5867 5868 5869 5869 5868 5866 5865 5864 5863 5862 5861 5859 5858 5857 5856 5855 5854 5854 5853 5851 5850 5849 5848 5848 5848 5848 5849 5850 5850 5852 5853 5854 5855 5857 5859
5842 5846 5849 5849 5850 5852 5855 5858 5860 5862 5864 5866 5867 5866 5863 5861 5860 5860 5860 5858 5858 5856 5855 5854 5854 5853 5853 5851 5850 5849 5848 5847 5847 5847 5847 5848 5848 5848 5849 5850 5851 5853 5854 5856
5835 5840 5844 5846 5845 5848 5850 5853 5855 5859 5861 5863 5864 5863 5858 5857 5857 5857 5857 5856 5856 5855 5853 5853 5852 5852 5852 5851 5849 5848 5847 5846 5846 5846 5846 5846 5846 5846 5847 5848 5849 5850 5852 5853
5829 5834 5838 5841 5842 5844 5846 5848 5851 5854 5856 5858 5860 5860 5855 5854 5854 5855 5854 5854 5854 5853 5852 5851 5851 5851 5850 5850 5848 5847 5846 5845 5845 5845 5845 5845 5845 5845 5845 5846 5847 5848 5849 5850
5823 5827 5832 5836 5840 5840 5842 5844 5846 5849 5852 5854 5857 5856 5853 5851 5851 5852 5852 5852 5852 5851 5850 5850 5849 5849 5849 5848 5847 5847 5846 5845 5844 5844 5844 5843 5843 5843 5843 5844 5844 5845 5845 5846
5816 5820 5826 5832 5836 5837 5838 5840 5842 5845 5847 5850 5852 5850 5849 5848 5848 5848 5848 5849 5849 5849 5848 5848 5847 5847 5847 5846 5846 5846 5845 5844 5843 5843 5842 5841 5841 5841 5841 5841 5842 5842 5842 5842
5809 5813 5818 5824 5828 5832 5833 5836 5838 5840 5843 5846 5847 5845 5844 5843 5843 5844 5844 5846 5846 5846 5846 5846 5845 5845 5845 5845 5844 5844 5843 5843 5842 5841 5840 5840 5839 5839 5839 5839 5839 5839 5839 5840
5801 5807 5812 5816 5822 5825 5828 5831 5834 5837 5839 5841 5841 5840 5838 5837 5838 5839 5841 5842 5843 5843 5843 5843 5843 5842 5842 5842 5842 5842 5841 5841 5840 5839 5839 5838 5837 5837 5836 5836 5836 5836 5836 5836
5794 5800 5805 5810 5816 5819 5822 5826 5829 5832 5834 5836 5836 5836 5834 5834 5835 5836 5837 5838 5839 5840 5840 5839 5839 5839 5839 5839 5839 5839 5838 5838 5837 5837 5836 5835 5834 5834 5833 5833 5833 5832 5832 5832
5786 5792 5797 5804 5810 5812 5819 5821 5824 5826 5828 5829 5829 5829 5828 5829 5831 5832 5833 5834 5835 5836 5836 5836 5835 5836 5836 5836 5836 5835 5835 5834 5834 5834 5833 5832 5831 5830 5830 5829 5829 5829 5829 5828
5779 5784 5790 5796 5801 5806 5811 5814 5817 5820 5821 5822 5822 5822 5823 5825 5826 5827 5828 5829 5830 5831 5831 5831 5831 5831 5831 5831 5831 5831 5831 5830 5830 5830 5829 5828 5827 5827 5826 5826 5825 5825 5824 5824
5771 5776 5783 5789 5794 5799 5805 5807 5808 5813 5813 5813 5814 5816 5817 5819 5821 5821 5823 5824 5825 5825 5826 5826 5826 5826 5826 5826 5826 5826 5826 5826 5825 5825 5824 5824 5823 5822 5822 5822 5821 5820 5820 5819
5763 5768 5774 5781 5786 5791 5794 5795 5799 5804 5804 5805 5807 5810 5811 5812 5814 5815 5817 5818 5819 5819 5820 5820 5820 5820 5820 5820 5820 5820 5820 5820 5820 5820 5819 5819 5818 5817 5817 5816 5815 5815 5814 5814
5756 5761 5767 5773 5779 5784 5784 5786 5789 5791 5794 5797 5799 5802 5805 5806 5808 5809 5810 5811 5812 5813 5813 5814 5814 5814 5814 5814 5814 5814 5814 5814 5814 5813 5813 5813 5812 5812 5811 5810 5810 5809 5808 5808
5749 5754 5759 5764 5769 5770 5774 5777 5781 5784 5787 5789 5793 5795 5798 5800 5802 5803 5804 5805 5805 5806 5806 5807 5807 5807 5807 5807 5807 5808 5807 5807 5807 5807 5807 5806 5806 5806 5805 5805 5804 5803 5803 5803
5740 5745 5750 5754 5757 5761 5765 5769 5772 5776 5780 5783 5785 5788 5791 5793 5794 5795 5797 5797 5798 5799 5799 5799 5800 5800 5800 5800 5800 5800 5800 5800 5800 5800 5800 5799 5799 5799 5798 5798 5798 5797 5797 5796
5731 5736 5740 5745 5749 5751 5757 5761 5765 5770 5773 5775 5778 5781 5783 5785 5786 5787 5788 5789 5790 5791 5792 5792 5792 5793 5793 5793 5793 5793 5793 5793 5792 5792 5792 5792 5792 5791 5791 5791 5791 5790 5790 5789
5723 5728 5732 5735 5739 5744 5749 5753 5757 5761 5765 5768 5770 5773 5775 5776 5778 5779 5780 5781 5782 5783 5784 5784 5785 5785 5785 5786 5786 5786 5785 5785 5785 5785 5785 5785 5784 5784 5784 5784 5783 5782 5782 5781
Wind_Speed
16 16 14 13 12 10 10 10 11 11 14 15 14 12 13 15 16 18 19 19 18 16 16 16 16 15 15 15 14 13 13 13 12 11 9 9 9 10 11 11 12 13 13 14
19 16 15 15 13 13 13 13 12 12 15 16 15 13 12 15 17 18 19 19 18 17 15 16 15 14 14 14 14 13 12 12 11 9 8 8 9 10 11 11 11 12 13 14
20 17 17 17 15 15 15 15 14 13 15 15 14 14 14 16 17 17 17 18 19 18 17 15 14 13 13 13 14 13 11 12 11 9 8 9 8 9 10 11 12 13 14 15
22 19 19 19 18 17 17 15 16 15 16 14 13 14 15 17 18 17 18 18 18 18 17 15 14 13 13 13 13 12 11 11 10 9 9 9 9 9 9 10 11 14 15 16
23 21 22 21 19 19 18 16 16 16 16 14 12 13 15 16 18 17 18 18 18 18 16 15 14 13 13 13 13 12 11 11 10 10 9 9 9 9 10 10 12 13 15 15
23 23 23 22 21 20 18 18 17 16 14 14 12 12 13 17 17 18 19 18 17 17 16 14 12 12 12 12 12 11 10 10 10 9 9 9 9 9 10 11 12 13 14 15
24 24 24 23 22 20 19 18 16 14 14 13 10 11 13 18 19 19 20 20 18 16 15 13 12 11 11 11 11 10 9 10 9 9 9 9 9 10 11 12 13 14 15 15
25 24 23 24 22 20 19 18 16 12 11 13 11 12 15 16 18 18 18 18 16 14 13 13 11 10 10 10 10 9 10 9 9 9 9 10 10 10 11 12 13 14 15 16
21 20 20 23 21 20 20 19 16 16 15 14 13 14 16 17 18 17 16 15 14 13 12 11 10 10 9 9 9 9 9 9 8 8 9 9 10 11 12 13 14 14 15 16
23 20 18 21 22 21 20 18 17 19 18 16 15 15 17 18 17 16 15 15 14 13 12 10 9 9 9 8 9 8 8 7 6 7 8 9 10 10 12 12 13 14 14 15
26 24 20 21 23 20 19 20 20 18 18 15 15 18 19 16 16 16 16 16 14 12 12 11 9 9 9 9 9 9 8 7 7 7 8 9 10 10 10 12 13 14 15 15
27 26 23 22 22 20 19 19 20 21 19 18 17 19 19 16 15 17 16 15 15 13 13 12 11 10 9 9 9 8 7 7 7 8 8 9 9 10 10 11 12 14 16 17
28 28 26 23 22 20 19 19 20 20 19 18 16 20 22 20 18 18 16 15 15 15 14 12 12 11 11 10 9 8 7 7 8 9 9 9 10 10 11 12 14 15 16 18
31 31 29 24 20 18 18 18 18 20 19 17 18 21 23 22 22 19 16 15 16 15 14 13 13 13 12 11 10 9 9 8 9 9 9 10 10 11 12 13 14 15 16 17
33 32 31 28 23 18 19 17 18 20 20 19 20 22 24 24 23 20 17 16 17 16 15 15 15 14 13 12 11 11 11 11 10 10 10 10 11 11 12 13 13 14 15 16
36 34 32 31 27 21 21 20 19 20 20 22 21 21 24 24 21 20 18 19 19 17 17 16 16 15 15 14 14 14 13 13 12 12 12 12 12 13 13 13 14 14 15 15
35 35 34 31 28 26 25 22 21 21 22 22 23 24 26 24 24 21 20 21 20 18 18 18 17 17 16 16 16 15 15 15 15 15 15 14 14 14 14 14 14 14 15 15
36 36 35 31 29 30 27 24 23 23 23 24 28 28 28 27 26 24 23 22 21 20 20 19 19 18 18 18 18 18 18 18 17 17 17 16 16 16 16 16 16 16 16 16
36 37 36 34 31 29 27 26 26 26 26 28 30 33 32 30 29 27 25 23 22 22 22 21 21 20 20 21 21 21 21 21 20 20 19 19 18 18 18 18 18 18 18 18
39 40 38 37 33 29 28 28 28 29 31 34 34 33 33 32 30 28 26 25 24 24 24 24 23 23 23 23 23 23 23 23 22 22 21 20 20 20 20 20 20 20 20 19
39 40 39 37 34 31 31 32 32 33 35 36 36 34 33 31 31 29 28 27 26 25 25 25 25 25 25 25 25 25 25 25 25 24 24 23 22 22 22 22 22 22 22 21
37 39 40 39 37 34 37 37 36 36 35 35 34 34 33 31 30 30 30 29 28 27 27 26 26 27 27 27 27 26 26 26 26 26 25 25 24 24 23 23 23 22 22 22
33 34 35 38 42 43 40 40 41 39 36 35 34 34 32 31 32 32 32 31 31 30 29 28 28 28 28 28 28 28 27 27 27 26 26 25 25 25 24 23 23 23 23 24
38 38 38 38 41 44 44 42 40 38 38 36 35 33 33 33 33 33 33 32 32 31 31 30 30 30 30 29 29 29 28 29 28 28 27 26 26 26 25 24 25 25 25 26
38 38 39 39 42 43 44 44 42 39 38 37 36 35 34 35 34 34 34 33 33 32 31 31 30 30 30 30 29 28 28 28 27 27 27 27 26 26 26 25 25 25 26 27
38 38 39 40 42 42 40 39 40 39 38 37 36 36 35 36 35 34 34 33 32 32 31 31 30 30 29 29 28 27 27 27 26 26 26 26 26 25 25 25 25 25 26 26
Wind_Direction
257 258 262 264 265 263 253 250 251 258 268 280 286 286 289 290 294 299 300 303 306 308 310 312 310 306 306 308 308 309 310 311 310 303 293 269 249 235 230 226 220 219 219 219
256 258 259 261 259 259 258 260 260 263 270 278 285 289 290 289 291 294 298 301 303 305 307 310 307 306 307 308 308 308 306 307 308 300 289 276 256 240 231 222 225 221 216 216
257 258 258 259 259 259 260 264 264 263 268 281 290 293 300 293 291 296 303 305 305 304 305 307 305 306 307 306 309 307 303 304 303 294 285 275 262 243 235 231 234 226 222 219
254 253 255 257 259 262 263 266 269 268 268 272 277 285 291 290 293 300 306 306 304 304 307 309 305 302 303 305 308 306 299 298 296 288 279 269 262 246 240 236 232 227 223 221
254 254 254 257 260 260 260 259 265 269 271 271 268 273 282 286 289 296 300 301 304 300 305 306 303 300 302 305 307 304 298 292 288 284 277 272 263 250 242 236 232 227 221 220
251 252 254 256 257 258 259 260 264 268 273 274 273 268 273 277 279 285 293 296 299 303 305 305 302 302 302 304 306 302 293 288 285 280 272 269 259 246 240 239 232 226 224 225
252 250 253 257 257 257 258 259 260 267 278 282 280 270 260 271 280 286 290 294 298 301 303 304 300 301 303 303 304 299 295 287 282 275 268 264 257 247 242 240 233 231 229 229
250 253 253 255 256 255 253 252 250 249 270 287 278 258 257 274 287 292 292 293 295 298 303 307 301 297 301 304 305 302 299 294 285 273 266 264 259 249 244 241 237 235 234 234
242 258 260 257 256 248 244 247 243 240 243 264 272 264 268 281 290 298 297 293 291 294 302 305 300 299 302 305 307 304 301 295 286 273 265 265 264 252 245 245 244 243 240 240
228 230 243 256 256 250 240 238 236 233 237 248 261 267 264 268 278 295 301 295 295 297 300 299 300 305 306 306 309 306 301 295 289 279 271 269 266 258 252 252 249 247 245 243
226 225 230 245 252 251 242 232 230 235 236 240 257 263 261 256 270 289 297 295 294 293 292 296 298 302 306 311 315 311 307 296 286 282 278 275 270 264 259 255 252 250 248 245
228 224 223 234 249 251 242 239 231 231 234 229 244 267 272 273 277 284 289 293 293 290 290 294 294 298 303 307 312 315 313 303 289 284 281 278 273 269 264 258 256 256 252 249
225 221 220 221 236 246 239 236 231 230 231 228 236 256 263 267 274 278 282 286 288 289 290 290 289 294 298 301 304 310 314 312 302 292 285 280 278 273 270 266 264 264 259 255
222 222 219 217 228 243 246 239 231 227 226 229 235 252 262 268 274 275 277 283 285 285 284 285 287 289 294 296 298 302 306 309 308 300 292 290 286 281 279 276 272 270 267 262
224 224 221 212 212 225 241 241 230 226 221 225 236 246 254 260 265 268 276 280 283 282 279 280 282 284 288 290 292 294 298 301 305 306 303 299 292 289 290 289 281 276 273 268
226 223 221 215 211 217 227 230 227 228 226 227 235 244 251 254 259 266 272 276 279 279 277 279 280 280 282 284 287 289 291 295 298 301 302 301 296 293 292 292 285 278 274 270
227 225 221 217 216 220 224 222 224 229 227 227 234 240 250 254 259 263 270 274 275 274 275 277 278 277 277 279 283 286 289 290 292 294 297 296 295 293 290 289 286 281 277 272
225 224 222 217 217 224 227 225 225 228 229 229 233 237 243 253 257 261 268 272 273 273 274 274 274 274 275 276 278 282 286 287 288 289 291 293 292 291 288 286 284 280 278 276
223 224 221 218 220 224 225 225 225 225 227 232 236 241 246 253 257 261 265 270 272 273 273 273 273 273 274 275 277 280 282 285 287 289 290 290 290 288 286 286 284 280 278 277
223 225 222 219 219 221 225 226 226 226 228 235 239 243 249 252 255 261 266 270 272 272 271 272 272 273 275 276 277 279 280 282 284 285 287 288 287 286 285 285 283 280 279 278
223 224 224 221 221 224 224 223 223 227 231 237 242 245 249 252 256 263 266 268 269 269 270 271 272 273 274 275 276 278 280 280 281 281 283 285 286 285 285 284 284 281 279 277
226 226 227 223 221 225 227 228 225 226 230 237 244 249 250 252 256 261 265 267 268 268 269 271 271 272 272 274 275 277 278 279 279 280 281 282 283 283 283 283 283 280 279 279
223 225 225 224 222 225 228 232 234 235 237 241 247 250 251 253 255 258 262 264 266 268 269 270 270 272 273 274 275 277 277 276 278 280 280 281 282 283 282 281 281 279 278 279
216 220 222 224 225 226 228 232 235 238 242 244 248 250 252 255 256 258 260 262 264 266 268 269 269 271 273 274 275 276 275 276 277 278 279 280 280 280 279 279 280 280 280 280
213 215 220 221 225 230 233 235 237 240 243 246 249 252 253 256 257 259 260 261 263 265 266 267 268 270 271 272 274 275 275 276 276 276 277 279 278 277 278 279 280 281 281 281
216 217 220 222 225 230 235 237 238 240 244 248 250 252 253 255 257 258 259 259 261 263 265 266 267 269 270 271 272 274 275 275 276 276 275 276 278 278 279 281 280 281 281 281